Regional Weather Roundup
Issued by NWS

Home | Current Version | Previous Version | Graphics & Text | Print | Product List | Glossary On
Versions: 1 2 3 4 5 6 7 8 9 10 11 12 13 14 15 16 17 18 19 20 21 22 23 24 25 26 27 28 29 30 31 32 33 34 35 36 37 38 39 40 41 42 43 44 45 46 47 48 49 50
000
ASUS43 KMPX 280001
RWRMN
WEATHER ROUNDUP FOR MINNESOTA
NATIONAL WEATHER SERVICE TWIN CITIES/CHANHASSEN MN
700 PM CDT FRI MAY 27 2016


NOTE: "FAIR" INDICATES FEW OR NO CLOUDS BELOW 12,000 FEET WITH NO
SIGNIFICANT WEATHER AND/OR OBSTRUCTIONS TO VISIBILITY. N/A MEANS
CURRENT SKY AND/OR WEATHER CONDITIONS ARE NOT AVAILABLE.

MNZ060>063-068>070-280100-
   Twin Cities Metro

CITY           SKY/WX    TMP DP  RH WIND       PRES   REMARKS
TWIN CITIES    CLOUDY    66  61  84 N7        29.74S
6HR MIN TEMP:  63; 6HR MAX TEMP:  68; 6HR PCP:  0.11;

ST PAUL        PTSUNNY   66  63  90 NW9       29.74F
CRYSTAL        CLOUDY    65  59  81 N7        29.74F
EDEN PRAIRIE   CLOUDY    67  60  78 N7        29.74S
6HR MIN TEMP:  64; 6HR MAX TEMP:  68; 6HR PCP:  0.10;

SOUTH ST PAUL  PTSUNNY   67  63  85 N6        29.74F
LAKE ELMO      PTSUNNY   66  64  94 NW7       29.75F
$$
MNZ001>005-007-008-013>017-022>024-027-028-280100-
   Northwest Minnesota

CITY           SKY/WX    TMP DP  RH WIND       PRES   REMARKS
BEMIDJI        CLOUDY    63  55  75 SE12      29.83S
HALLOCK        MOSUNNY   73  54  49 NE8       29.76S
ROSEAU         LGT RAIN  63  57  82 E5        29.82S
WARROAD        DRIZZLE   63  57  82 NE3       29.83S
THIEF RVR FALL CLOUDY    66  55  68 SE12      29.80R
CROOKSTON      LGT RAIN  63  63 100 NE3       29.77F
FOSSTON        CLOUDY    64  57  77 SE14      29.79F
DETROIT LAKES  CLOUDY    66  59  77 SE12      29.79S
MOORHEAD       LGT RAIN  63  61  94 W5        29.77S
PARK RAPIDS    CLOUDY    64  55  72 E9        29.81S
MAHNOMEN       FAIR      68  57  68 SE14      29.78R
$$
MNZ006-009>011-018-025>026-280100-
   North Central Minnesota

CITY           SKY/WX    TMP DP  RH WIND       PRES   REMARKS
BAUDETTE       CLOUDY    68  54  60 SE8       29.83F
FLAG ISLAND    LGT RAIN  64  57  77 CALM      29.83S
INTL FALLS     CLOUDY    68  51  54 E5        29.84F
6HR MIN TEMP:  65; 6HR MAX TEMP:  68;

WASKISH        CLOUDY    66  55  68 SE8       29.83S
BIG FORK       LGT RAIN  61  57  88 CALM      29.84S
LONGVILLE      CLOUDY    61  59  94 E3        29.83S
GRAND RAPIDS   CLOUDY    61  56  83 NE8       29.84F
CRANE LAKE     PTSUNNY   61  57  88 SE3       29.84F
ORR            DRIZZLE   61  55  82 CALM      29.82F
COOK           PTSUNNY   61  57  88 CALM      29.85F
WALKER         CLOUDY    61  57  85 E5        29.83S
$$
MNZ012-019>021-037-280100-
   Northeast Minnesota

CITY           SKY/WX    TMP DP  RH WIND       PRES   REMARKS
DULUTH         CLOUDY    56  53  90 E6        29.83F
6HR MIN TEMP:  49; 6HR MAX TEMP:  63; 6HR PCP:  0.08;

ELY            LGT RAIN  61  57  88 E5        29.87F
HIBBING        CLOUDY    60  57  89 E5        29.84F
EVELETH        MOSUNNY   63  59  88 NE5       29.86S
DULUTH HARBOR  DRIZZLE   48  46  93 NE13      29.85S
TWO HARBORS    LGT RAIN  57  52  82 N6        29.83S
SILVER BAY     LGT RAIN  54  52  94 CALM      29.83F
GRAND MARAIS     N/A     45  42  89 S3        29.89R
G MARAIS ARPRT CLOUDY    57  50  77 NE3       29.90S
$$
MNZ029>031-032-039>041-046>048-054>057-064-280100-
   West Central Minnesota

CITY           SKY/WX    TMP DP  RH WIND       PRES   REMARKS
FERGUS FALLS   CLOUDY    68  57  68 E6        29.73S
WHEATON        CLOUDY    72  59  64 NE3       29.76R
MORRIS         CLOUDY    70  61  73 E7        29.73S
ALEXANDRIA     PTSUNNY   62  59  90 E16G22    29.77F
ELBOW LAKE     CLOUDY    66  61  83 NE7       29.76S
WADENA         CLOUDY    61  55  82 E10       29.79F
GLENWOOD       CLOUDY    63  61  94 E17       29.76F
APPLETON       MOSUNNY   73  55  53 NE3       29.71S
ORTONVILLE     PTSUNNY   70  57  64 NW7       29.74R
MADISON        SUNNY     72  57  60 CALM      29.71F
WILLMAR        FAIR      68  63  83 E12       29.76S
$$
MNZ033>034-036-042>043-049>051-058-059-280100-
   Central Minnesota

CITY           SKY/WX    TMP DP  RH WIND       PRES   REMARKS
ST CLOUD       CLOUDY    61  59  93 N7        29.77F
6HR MIN TEMP:  60; 6HR MAX TEMP:  64; 6HR PCP:  0.20;

SAUK CENTRE    CLOUDY    61  58  90 E13       29.78F
PAYNESVILLE    PTSUNNY   63  60  91 E9        29.78S
AITKIN         PTSUNNY   63  57  82 NE7       29.80F
PINE RIVER     CLOUDY    63  57  82 CALM      29.85S
BRAINERD       LGT RAIN  61  58  90 E7        29.80F
STAPLES        LGT RAIN  59  55  88 NE3       29.80S
LONG PRAIRIE   CLOUDY    59  57  94 NE12      29.79F
LITTLE FALLS   RAIN      59  55  88 CALM      29.80F
LITCHFIELD     CLOUDY    63  63 100 E8        29.77S
BUFFALO        CLOUDY    62  58  86 N6        29.78S
MAPLE LAKE     CLOUDY    62  60  94 N5        29.78F
HUTCHINSON     HVY RAIN  64  63  95 NE6       29.77R
$$
MNZ037-044-045-052-053-280100-
   East Central Minnesota

CITY           SKY/WX    TMP DP  RH WIND       PRES   REMARKS
PRINCETON      CLOUDY    63  61  94 N9        29.78S
MORA           CLOUDY    55  54  94 N6        29.81F
CAMBRIDGE      DRIZZLE   63  55  77 N7        29.75F
RUSH CITY      CLOUDY    59  57  92 N7        29.77S
MOOSE LAKE     CLOUDY    52  52 100 NE3       29.81S
HINCKLEY       DRIZZLE   55  55 100 N8        29.79F
CLOQUET        CLOUDY    52  52 100 E7        29.83F
MCGREGOR       CLOUDY    61  57  88 NE6       29.82F
$$
MNZ071>073-080-081-089-090-097-098-280100-
   Southwest Minnesota

CITY           SKY/WX    TMP DP  RH WIND       PRES   REMARKS
MONTEVIDEO     PTSUNNY   73  57  56 E12       29.73S
GRANITE FALLS  MOSUNNY   75  60  59 NE10      29.72S
CANBY          SUNNY     74  62  65 NW5       29.73S
MARSHALL       CLOUDY    72  57  59 E13       29.70F
REDWOOD FALLS  SUNNY     70  60  70 NE5       29.71F
OLIVIA         MOSUNNY   70  63  78 NE12      29.73R
PIPESTONE      SUNNY     73  54  49 CALM      29.73R
WINDOM         SUNNY     73  54  49 CALM      29.71F
WORTHINGTON    PTSUNNY   73  58  59 E6        29.72F
JACKSON        SUNNY     73  52  46 CALM      29.72F
TRACY          MOSUNNY   73  59  61 NE10      29.72S
SLAYTON        MOSUNNY   73  52  47 NE5       29.73S
$$
MNZ065>067-074>077-082>085-091>093-280100-
   South Central Minnesota

CITY           SKY/WX    TMP DP  RH WIND       PRES   REMARKS
MANKATO        SUNNY     70  59  68 NE5       29.73S
NEW ULM        SUNNY     70  61  73 NE13      29.72R
ST JAMES       SUNNY     68  55  64 NE5       29.73R
FAIRMONT       SUNNY     73  57  56 NE6       29.72R
GLENCOE        CLOUDY    66  64  91 N6        29.75S
FARIBAULT      MOSUNNY   68  63  83 N7        29.74F
OWATONNA       MOSUNNY   70  61  73 CALM      29.74S
WASECA         PTSUNNY   70  61  73 NE6       29.75R
ALBERT LEA     MOSUNNY   68  63  83 CALM      29.74R
$$
MNZ078>079-086>088-094>096-280100-
   Southeast Minnesota

CITY           SKY/WX    TMP DP  RH WIND       PRES   REMARKS
ROCHESTER      MOSUNNY   70  65  84 NW5       29.75R
6HR MIN TEMP:  65; 6HR MAX TEMP:  71; 6HR PCP:  0.27;

RED WING       PTSUNNY   70  64  83 W5        29.72F
STANTON        CLOUDY    68  62  79 N5        29.73S
DODGE CENTER   CLOUDY    70  66  88 N6        29.74S
WINONA         CLOUDY    70  64  83 N5        29.73R
AUSTIN         MOSUNNY   70  63  78 CALM      29.74R
PRESTON        PTSUNNY   69  65  86 CALM      29.75R
$$
ABBREVIATIONS USED IN REMARKS
   TC - TEMPERATURES IN CELSIUS
  WCI - WIND CHILL INDEX
   HX - HEAT INDEX
  VSB - VISIBILITY
$$



USA.gov is the U.S. government's official web portal to all federal, state and local government web resources and services.